ROMMA est une association bénévole à but non lucratif. Votre soutien est indispensable : ADHERER à ROMMA ou FAIRE un DON

Val-d'Arly - (73, Savoie)

Beaufortain (2050 m)   Longitude: 06° 35' 21" E   Latitude: 45° 46' 53" N Station romma n°118
 

Détail journalier du     <<     >>

Température Precipitation Humidité Vent Dir Rafale Dir. rafale Ensol.
Heure (°C) (mm) (%) (km/h) (km/h) (min)
01:00 16.605712SE21SE0
02:00 18.104413SO23OSO0
03:00 18.30436SSO10SSO0
04:00 17.70443S10ESE0
05:00 17.30486E15E0
06:00 16.70512ENE10ENE0
07:00 15.80585ENE13E30
08:00 15.70676ENE11E30
09:00 16.10703NE6NNO30
10:00 16.70693ESE10SSE60
11:00 16.80666ENE21NE60
12:00 17.206612NE26E60
13:00 18.206410ENE21NE60
14:00 18.90628NE16ENE30
15:00 18.70688NE23NE10
16:00 18.707018NE37NNE60
17:00 18.107423NE43NNE20
18:00 13.118027ESE53S0
19:00 15.606421E37E0
20:00 15.90.2646ESE15SE0
21:00 13.80.27213ENE43NNE0
22:00 13.80.27014E26E0
23:00 12.608212NE23NE0
minuit 10.809213NE29NO0

Graphique du 26-07-2019

 

Serveur OMMA